This is the latest recevied weather packets stored in our database for station/object F4HUO-10. If no packets are shown the sender has not sent any weather packets the latest 10 day(s).
| Time | Temp. | Humidity | Pressure | Rain* | Wind** | Luminosity | Snow |
|---|---|---|---|---|---|---|---|
| 1777565249 | 19.44° C | 43% | 1007.2 hPa | - | - | - | - |
| 1777561647 | 18.89° C | 43% | 1007.2 hPa | - | - | - | - |
| 1777558046 | 18.89° C | 42% | 1007.3 hPa | - | - | - | - |
| 1777554445 | 18.89° C | 41% | 1007.5 hPa | - | - | - | - |
| 1777550843 | 18.89° C | 40% | 1007.9 hPa | - | - | - | - |
| 1777547242 | 18.89° C | 39% | 1008.4 hPa | - | - | - | - |
| 1777543648 | 18.89° C | 39% | 1008.5 hPa | - | - | - | - |
| 1777540046 | 18.33° C | 41% | 1008.6 hPa | - | - | - | - |
| 1777536445 | 18.33° C | 41% | 1008.6 hPa | - | - | - | - |
| 1777532844 | 18.33° C | 41% | 1008.5 hPa | - | - | - | - |
| 1777529242 | 18.33° C | 39% | 1008.5 hPa | - | - | - | - |
| 1777525641 | 18.33° C | 42% | 1008.4 hPa | - | - | - | - |
| 1777522047 | 18.33° C | 40% | 1008.1 hPa | - | - | - | - |
| 1777518446 | 18.33° C | 41% | 1007.9 hPa | - | - | - | - |
| 1777514844 | 18.33° C | 42% | 1007.9 hPa | - | - | - | - |
| 1777511243 | 18.89° C | 41% | 1007.7 hPa | - | - | - | - |
| 1777507642 | 18.89° C | 41% | 1007.7 hPa | - | - | - | - |
| 1777504040 | 18.89° C | 44% | 1007.5 hPa | - | - | - | - |
| 1777500446 | 18.89° C | 43% | 1007.5 hPa | - | - | - | - |
| 1777496845 | 18.89° C | 44% | 1007.1 hPa | - | - | - | - |
| 1777493243 | 18.89° C | 47% | 1006.7 hPa | - | - | - | - |
| 1777489642 | 18.89° C | 47% | 1006 hPa | - | - | - | - |
| 1777486044 | 18.89° C | 47% | 1005.2 hPa | - | - | - | - |
| 1777482442 | 18.89° C | 48% | 1004.9 hPa | - | - | - | - |
| 1777478846 | 19.44° C | 49% | 1004.9 hPa | - | - | - | - |
* Rain since midnight (hover to see other rain measurements)
** Current wind speed in m/s (hover to see current wind gust speed)